TimeCST,TemperatureF,Dew PointF,Humidity,Sea Level PressureIn,VisibilityMPH,Wind Direction,Wind SpeedMPH,Gust SpeedMPH,PrecipitationIn,Events,Conditions,WindDirDegrees,DateUTC
12:15 AM,24.8,19.4,80,30.06,10.0,Calm,Calm,-,N/A,,Clear,0,2013-02-17 06:15:00
12:35 AM,24.8,19.4,80,30.06,10.0,Calm,Calm,-,N/A,,Clear,0,2013-02-17 06:35:00
12:55 AM,24.8,19.4,80,30.06,10.0,Calm,Calm,-,N/A,,Clear,0,2013-02-17 06:55:00
1:15 AM,24.8,17.6,74,30.06,10.0,Calm,Calm,-,N/A,,Clear,0,2013-02-17 07:15:00
1:35 AM,23.0,17.6,80,30.06,10.0,Calm,Calm,-,N/A,,Clear,0,2013-02-17 07:35:00
1:55 AM,24.8,19.4,80,30.06,10.0,Calm,Calm,-,N/A,,Clear,0,2013-02-17 07:55:00
2:15 AM,24.8,19.4,80,30.06,10.0,Calm,Calm,-,N/A,,Clear,0,2013-02-17 08:15:00
2:35 AM,24.8,19.4,80,30.06,10.0,SSE,3.5,-,N/A,,Clear,150,2013-02-17 08:35:00
2:55 AM,24.8,17.6,74,30.05,10.0,Calm,Calm,-,N/A,,Clear,0,2013-02-17 08:55:00
3:15 AM,23.0,17.6,80,30.04,10.0,Calm,Calm,-,N/A,,Clear,0,2013-02-17 09:15:00
3:35 AM,23.0,17.6,80,30.04,10.0,Calm,Calm,-,N/A,,Clear,0,2013-02-17 09:35:00
3:55 AM,23.0,17.6,80,30.04,10.0,Calm,Calm,-,N/A,,Clear,0,2013-02-17 09:55:00
4:15 AM,23.0,17.6,80,30.03,10.0,Calm,Calm,-,N/A,,Clear,0,2013-02-17 10:15:00
4:35 AM,23.0,17.6,80,30.03,10.0,SSE,3.5,-,N/A,,Clear,150,2013-02-17 10:35:00
4:55 AM,21.2,17.6,86,30.03,10.0,Calm,Calm,-,N/A,,Clear,0,2013-02-17 10:55:00
5:15 AM,21.2,17.6,86,30.02,10.0,Calm,Calm,-,N/A,,Clear,0,2013-02-17 11:15:00
5:35 AM,19.4,17.6,93,30.02,10.0,Calm,Calm,-,N/A,,Clear,0,2013-02-17 11:35:00
5:55 AM,21.2,17.6,86,30.00,10.0,Calm,Calm,-,N/A,,Clear,0,2013-02-17 11:55:00
6:15 AM,21.2,17.6,86,30.00,10.0,SE,5.8,-,N/A,,Clear,140,2013-02-17 12:15:00
6:35 AM,21.2,17.6,86,30.00,10.0,South,3.5,-,N/A,,Clear,180,2013-02-17 12:35:00
6:55 AM,21.2,17.6,86,30.00,10.0,Calm,Calm,-,N/A,,Clear,0,2013-02-17 12:55:00
7:15 AM,21.2,17.6,86,29.99,10.0,Calm,Calm,-,N/A,,Clear,0,2013-02-17 13:15:00
7:35 AM,23.0,17.6,80,29.99,10.0,Calm,Calm,-,N/A,,Clear,0,2013-02-17 13:35:00
7:55 AM,24.8,19.4,80,29.98,10.0,SSE,3.5,-,N/A,,Clear,150,2013-02-17 13:55:00
8:15 AM,26.6,21.2,80,29.98,10.0,SSE,5.8,-,N/A,,Clear,150,2013-02-17 14:15:00
8:35 AM,28.4,21.2,74,29.97,10.0,South,6.9,-,N/A,,Clear,170,2013-02-17 14:35:00
8:55 AM,30.2,21.2,69,29.97,10.0,SSE,12.7,-,N/A,,Clear,160,2013-02-17 14:55:00
9:15 AM,30.2,21.2,69,29.97,10.0,South,12.7,-,N/A,,Clear,170,2013-02-17 15:15:00
9:35 AM,30.2,21.2,69,29.97,10.0,South,13.8,18.4,N/A,,Clear,170,2013-02-17 15:35:00
9:55 AM,33.8,21.2,60,29.96,10.0,South,13.8,-,N/A,,Clear,170,2013-02-17 15:55:00
10:15 AM,35.6,21.2,56,29.95,10.0,SSE,13.8,-,N/A,,Clear,160,2013-02-17 16:15:00
10:35 AM,35.6,21.2,56,29.93,10.0,SSE,12.7,19.6,N/A,,Clear,160,2013-02-17 16:35:00
10:55 AM,37.4,21.2,52,29.92,10.0,SSE,15.0,-,N/A,,Clear,150,2013-02-17 16:55:00
11:15 AM,39.2,21.2,49,29.91,10.0,SSE,13.8,-,N/A,,Clear,160,2013-02-17 17:15:00
11:35 AM,41.0,21.2,45,29.90,10.0,SSE,11.5,-,N/A,,Clear,150,2013-02-17 17:35:00
11:55 AM,42.8,21.2,42,29.90,10.0,SSE,15.0,18.4,N/A,,Clear,150,2013-02-17 17:55:00
12:15 PM,44.6,23.0,43,29.88,10.0,SSE,13.8,19.6,N/A,,Clear,160,2013-02-17 18:15:00
12:55 PM,46.4,23.0,40,29.84,10.0,SSE,15.0,19.6,N/A,,Clear,160,2013-02-17 18:55:00
1:15 PM,48.2,23.0,37,29.82,10.0,SSE,17.3,23.0,N/A,,Clear,160,2013-02-17 19:15:00
1:35 PM,48.2,23.0,37,29.81,10.0,SSE,17.3,-,N/A,,Clear,150,2013-02-17 19:35:00
2:15 PM,50.0,24.8,37,29.78,10.0,South,17.3,25.3,N/A,,Clear,170,2013-02-17 20:15:00
2:35 PM,50.0,24.8,37,29.77,10.0,South,20.7,26.5,N/A,,Clear,170,2013-02-17 20:35:00
2:55 PM,50.0,24.8,37,29.76,10.0,South,18.4,27.6,N/A,,Clear,170,2013-02-17 20:55:00
3:15 PM,51.8,24.8,35,29.75,10.0,SSE,19.6,27.6,N/A,,Clear,160,2013-02-17 21:15:00
3:35 PM,51.8,24.8,35,29.74,10.0,South,17.3,23.0,N/A,,Clear,170,2013-02-17 21:35:00
3:55 PM,50.0,24.8,37,29.74,10.0,SSE,20.7,27.6,N/A,,Clear,160,2013-02-17 21:55:00
4:15 PM,50.0,24.8,37,29.73,10.0,South,17.3,25.3,N/A,,Clear,170,2013-02-17 22:15:00
4:35 PM,48.2,24.8,40,29.73,10.0,SSE,15.0,21.9,N/A,,Clear,160,2013-02-17 22:35:00
4:55 PM,48.2,24.8,40,29.72,10.0,SSE,15.0,-,N/A,,Clear,160,2013-02-17 22:55:00
5:15 PM,48.2,24.8,40,29.71,10.0,SSE,11.5,-,N/A,,Clear,150,2013-02-17 23:15:00
5:35 PM,48.2,24.8,40,29.70,10.0,SSE,12.7,-,N/A,,Clear,150,2013-02-17 23:35:00
5:55 PM,46.4,26.6,46,29.69,10.0,SSE,11.5,17.3,N/A,,Clear,160,2013-02-17 23:55:00
6:15 PM,46.4,26.6,46,29.69,10.0,SSE,13.8,19.6,N/A,,Clear,160,2013-02-18 00:15:00
6:35 PM,44.6,26.6,49,29.70,10.0,SSE,12.7,-,N/A,,Clear,160,2013-02-18 00:35:00
6:55 PM,42.8,26.6,53,29.69,10.0,SSE,12.7,-,N/A,,Clear,160,2013-02-18 00:55:00
7:15 PM,42.8,26.6,53,29.69,10.0,South,10.4,-,N/A,,Clear,170,2013-02-18 01:15:00
7:35 PM,42.8,26.6,53,29.69,10.0,South,9.2,-,N/A,,Clear,170,2013-02-18 01:35:00
7:55 PM,42.8,26.6,53,29.69,10.0,South,11.5,17.3,N/A,,Clear,170,2013-02-18 01:55:00
8:15 PM,42.8,26.6,53,29.69,10.0,South,11.5,-,N/A,,Clear,170,2013-02-18 02:15:00
8:35 PM,42.8,26.6,53,29.68,10.0,South,13.8,-,N/A,,Clear,170,2013-02-18 02:35:00
8:55 PM,42.8,28.4,57,29.68,10.0,South,12.7,-,N/A,,Clear,170,2013-02-18 02:55:00
9:15 PM,42.8,28.4,57,29.67,10.0,South,10.4,-,N/A,,Clear,170,2013-02-18 03:15:00
9:35 PM,42.8,28.4,57,29.67,10.0,South,9.2,-,N/A,,Clear,170,2013-02-18 03:35:00
9:55 PM,41.0,28.4,61,29.66,10.0,South,8.1,-,N/A,,Clear,170,2013-02-18 03:55:00
10:15 PM,41.0,28.4,61,29.65,10.0,SSE,9.2,-,N/A,,Clear,160,2013-02-18 04:15:00
10:35 PM,41.0,28.4,61,29.64,10.0,SSE,6.9,-,N/A,,Clear,160,2013-02-18 04:35:00
10:55 PM,39.2,28.4,65,29.64,10.0,SSE,6.9,-,N/A,,Clear,160,2013-02-18 04:55:00
11:15 PM,39.2,28.4,65,29.63,10.0,South,8.1,-,N/A,,Clear,170,2013-02-18 05:15:00
11:35 PM,39.2,28.4,65,29.62,10.0,SSE,9.2,-,N/A,,Clear,160,2013-02-18 05:35:00
11:55 PM,39.2,28.4,65,29.61,10.0,South,9.2,-,N/A,,Clear,170,2013-02-18 05:55:00